Home   Weather   Rainy River   Past weeks

Flag for Canada Past Weather in Rainy River, Ontario, Canada — Yesterday and Last 2 Weeks

Now
43 °F

Sunny.


Feels Like: 40 °F
Forecast: 24 / 54 °F
Wind: 5 mph from North

Location: Baudette International Airport

Current Time: Apr 28, 2017 at 8:42:50 pm

Latest Report: Apr 28, 2017 at 7:53 pm


Visibility: 10 mi

Pressure: 30.09 "Hg

Humidity: 40%

Dew Point: 20 °F

Location of Rainy RiverLocation

Past Weather in Rainy River — Graph

°F

Rainy River Temperature Yesterday

Maximum temperature yesterday: 30 °F (at 10:53 pm)
Minimum temperature yesterday: 22 °F (at 4:53 am)
Average temperature yesterday: 26 °F

High & Low Weather Summary for the Past Weeks

 TemperatureHumidityPressure
High68 °F (Apr 14, 1:53 pm)100% (Apr 19, 7:24 am)30.31 "Hg (Apr 19, 7:24 am)
Low22 °F (Apr 27, 4:53 am)29% (Apr 13, 6:53 pm)29.61 "Hg (Apr 27, 6:20 pm)
Average39 °F72%29.96 "Hg
* Reported Apr 13 6:53 pm — Apr 28 6:53 pm, Rainy River, Weather by CustomWeather, © 2017

Note: Actual official high and low records may vary slightly from our data, if they occured in-between our weather recording intervals... More about our weather records

Advertising

Rainy River Weather History for the Previous 24 Hours

Scroll right to see more
 ConditionsComfort  
Time TempWeatherWind HumidityBarometerVisibility
6:53 pm
Fri, Apr 28
45 °FSunny.8 mph38%30.07 "Hg10 mi
5:53 pm46 °FSunny.13 mph38%30.05 "Hg10 mi
4:53 pm46 °FSunny.10 mph40%30.03 "Hg10 mi
3:53 pm46 °FSunny.17 mph42%30.01 "Hg10 mi
2:53 pm44 °FSunny.13 mph43%29.99 "Hg10 mi
1:53 pm42 °FSunny.22 mph45%29.98 "Hg10 mi
12:53 pm40 °FSunny.18 mph45%29.95 "Hg10 mi
11:53 am39 °FSunny.18 mph38%29.93 "Hg10 mi
10:53 am37 °FSunny.17 mph46%29.91 "Hg10 mi
9:53 am35 °FScattered clouds.18 mph50%29.89 "Hg10 mi
8:53 am33 °FScattered clouds.15 mph63%29.88 "Hg10 mi
7:53 am31 °FMostly cloudy.13 mph76%29.88 "Hg10 mi
6:53 am31 °FOvercast.15 mph73%29.85 "Hg10 mi
6:16 am30 °FMore clouds than sun.13 mph79%29.79 "Hg10 mi
5:53 am30 °FMostly cloudy.15 mph82%29.83 "Hg10 mi
4:53 am30 °FLight snow. Mostly cloudy.14 mph82%29.81 "Hg7 mi
4:31 am30 °FLight snow. Ice fog.17 mph85%29.76 "Hg3 mi
4:07 am30 °FLight snow. Ice fog.16 mph85%29.75 "Hg2 mi
3:40 am30 °FLight snow. Ice fog.16 mph85%29.74 "Hg1 mi
3:19 am29 °FLight snow. Ice fog.15 mph93%29.74 "Hg1 mi
2:39 am29 °FMostly cloudy.10 mph82%29.73 "Hg7 mi
2:19 am29 °FLight snow. Partly cloudy.8 mph82%29.73 "Hg3 mi
1:53 am29 °FPartly cloudy.15 mph75%29.78 "Hg10 mi
12:53 am29 °FLight snow. Overcast.18 mph82%29.76 "Hg8 mi
11:53 pm
Thu, Apr 27
30 °FOvercast.15 mph79%29.74 "Hg9 mi
11:38 pm29 °FLight snow. Overcast.12 mph82%29.69 "Hg1 mi
10:53 pm30 °FOvercast.10 mph75%29.73 "Hg10 mi
9:53 pm29 °FMostly cloudy.10 mph79%29.72 "Hg10 mi
9:12 pm28 °FLight snow. Overcast.9 mph81%29.65 "Hg7 mi
9:05 pm28 °FLight snow. Mostly cloudy.13 mph81%29.65 "Hg6 mi
8:28 pm29 °FMostly cloudy.7 mph75%29.64 "Hg10 mi
Weather by CustomWeather, © 2017

See weather overviewHow to use our weather pages